Location: Clifton Park
(41.4873°N, 81.8024°W)
Time: 21:52:59
(UTC+00:00)

IRS-1A Rocket - Pass Details

Date: 21 January 2020
Orbit: 851 x 931 km, 99.2° (Epoch: 27 February)

Event Time Altitude Azimuth Distance (km) Brightness Sun altitude
Rises 00:46:56 0° 165° (SSE) 3,545 7.3 -25.8°
Reaches altitude 10° 00:49:21 10° 165° (SSE) 2,598 6.6 -26.2°
Maximum altitude 00:55:10 87° 255° (WSW) 910 4.2 -27.3°
Drops below altitude 10° 01:00:54 10° 345° (NNW) 2,563 6.8 -28.4°
Sets 01:03:17 0° 346° (NNW) 3,494 7.6 -28.8°
